[[{"header":{"parameterUnit":"m.s-1","parameterCategory":1,"la1":30.2991,"la2":30.254,"lo1":-89.0895,"lo2":-89.0444,"dy":0.0017,"dx":0.0017,"nx":28,"ny":28,"refTime":"2024-05-29T21:00:00:Z","depth":0,"parameterNumber":2,"parameterNumberName":"U-component_of_WINDS"},"data":[0,0,0,0,0,0,0,0,0,0,0,0,0,0,0,0,0,0,0,0,0,0,0,0,0,0,0,0,0,0,0,0,0,0,0,0,0,0,0,0,0,0,0,0,0,0,0,0,0,0,0,0,0,0,0,0,0,0,-4.5077,-4.5076,0,-4.5027,-4.5026,-4.5026,-4.4889,-4.4886,-4.4883,-4.488,-4.4833,-4.4835,-4.4836,0,0,0,0,0,0,0,0,0,0,0,0,0,-4.5058,-4.5059,-4.5077,-4.5076,-4.5075,-4.5027,-4.5026,-4.5026,-4.4889,-4.4886,-4.4882,-4.4879,-4.4833,-4.4835,-4.4836,0,0,0,0,0,0,0,0,0,0,0,0,0,-4.5043,-4.5059,-4.5077,-4.5002,-4.4994,-4.5027,-4.5026,-4.5025,-4.489,-4.4886,-4.4881,-4.4877,-4.4832,-4.4834,-4.4837,-4.494,0,0,-4.4844,-4.4844,0,0,0,0,0,0,0,0,-4.5044,-4.5044,-4.5013,-4.5007,-4.4999,-4.4959,-4.5002,-4.4997,-4.4891,-4.493,-4.488,-4.4875,-4.4879,-4.4877,-4.4878,-4.4937,-4.4935,-4.4844,-4.4845,-4.4846,-4.4847,0,0,0,0,0,0,0,-4.5045,-4.5045,-4.5057,-4.5013,-4.5004,-4.4972,-4.4965,-4.5001,-4.493,-4.4926,-4.4916,-4.4912,-4.4874,-4.4876,-4.4876,-4.4935,-4.4844,-4.4846,-4.4847,-4.4848,-4.5078,-4.5082,0,0,0,0,0,0,-4.5056,-4.5047,-4.5059,-4.5055,-4.5011,-4.4976,-4.4968,-4.4977,-4.4929,-4.4918,-4.4916,-4.4906,-4.4874,-4.4873,-4.4874,-4.4992,-4.4846,-4.4848,-4.4849,-4.5073,-4.5079,-4.5084,0,0,0,0,0,0,-4.5056,-4.5059,-4.5061,-4.5048,-4.5046,-4.4981,-4.4992,-4.4978,-4.4979,-4.4921,-4.4909,-4.493,-4.4871,-4.487,-4.4924,-4.4988,-4.4849,-4.4851,-4.5068,-4.5075,-4.5081,-4.523,0,0,0,0,0,0,-4.5057,-4.506,-4.5097,-4.505,-4.5047,-4.5112,-4.4996,-4.498,-4.4983,-4.497,-4.4931,-4.4921,-4.4867,-4.4922,-4.4927,-4.4989,-4.4853,-4.5062,-4.5071,-4.5079,-4.5219,-4.5241,-4.526,0,0,0,0,0,-4.5056,-4.5141,-4.51,-4.5102,-4.5093,-4.5115,-4.5114,-4.5049,-4.4989,-4.5027,-4.499,-4.4922,-4.4981,-4.4928,-4.4933,-4.4997,-4.5057,-4.5068,-4.5079,-4.521,-4.5237,-4.526,0,0,0,0,0,0,-4.5198,-4.5134,-4.5087,-4.5159,-4.5144,-4.5092,-4.5138,-4.508,-4.5082,-4.5069,-4.499,-4.4983,-4.5048,-4.5027,-4.4971,-4.5095,-4.5008,-4.502,-4.5106,-4.5131,-4.5152,-4.5156,-4.4855,0,0,0,0,0,-4.5238,-4.526,-4.5203,-4.5272,-4.5267,-4.5204,-4.5212,-4.5163,-4.5145,-4.5138,-4.5104,-4.509,-4.5105,-4.5117,-4.5127,-4.5215,-4.5206,-4.5261,-4.5282,-4.5299,-4.5311,-4.5358,-4.5382,-4.5119,-4.5119,-4.5119,0,0,-4.532,-4.5288,-4.5307,-4.53,-4.5282,-4.5309,-4.52,-4.5232,-4.5252,-4.5143,-4.5192,-4.5167,-4.5146,-4.5218,-4.5248,-4.5203,-4.5382,-4.5313,-4.5327,-4.5329,-4.5371,-4.5396,-4.5418,-4.5126,-4.5125,-4.5124,0,0,-4.5484,-4.5461,-4.5517,-4.5501,-4.5476,-4.5433,-4.5447,-4.5405,-4.5384,-4.5431,-4.5351,-4.5373,-4.54,-4.5389,-4.5387,-4.5548,-4.5487,-4.5554,-4.5662,-4.5708,-4.5729,-4.5747,-4.5806,-4.5828,-4.5565,-4.5566,-4.5566,0,-4.559,-4.5625,-4.5553,-4.5591,-4.5591,-4.5493,-4.555,-4.5539,-4.5519,-4.5522,-4.5471,-4.5504,-4.5483,-4.5551,-4.5591,-4.5592,-4.5606,-4.5558,-4.5731,-4.5749,-4.5765,-4.582,-4.5842,-4.5574,-4.5573,-4.5572,-4.5571,0,-4.5758,-4.5784,-4.5832,-4.5814,-4.582,-4.5867,-4.5804,-4.5818,-4.577,-4.5733,-4.5784,-4.5755,-4.5759,-4.5771,-4.5724,-4.5834,-4.5807,-4.5745,-4.5656,-4.5799,-4.585,-4.5871,-4.5586,-4.5583,-4.5581,-4.5579,0,0,-4.601,-4.5951,-4.5971,-4.5962,-4.5927,-4.5946,-4.599,-4.5993,-4.6008,-4.5997,-4.6033,-4.6059,-4.6002,-4.6,-4.595,-4.5991,-4.6122,-4.5924,-4.5923,-4.5964,-4.6243,-4.6291,-4.6317,-4.6081,-4.6085,-4.6088,-4.6246,0,-4.6165,-4.6235,-4.6172,-4.6255,-4.6279,-4.6187,-4.6225,-4.6209,-4.6177,-4.6194,-4.6158,-4.6178,-4.61,-4.6099,-4.6134,-4.6099,-4.6178,-4.6086,-4.6116,-4.6117,-4.6125,-4.6343,-4.6393,-4.6544,-4.6265,-4.6268,-4.6271,0,-4.6356,-4.6354,-4.644,-4.64,-4.6408,-4.6443,-4.6441,-4.6458,-4.6438,-4.6412,-4.641,-4.635,-4.6392,-4.6305,-4.6362,-4.6302,-4.631,-4.6294,-4.6299,-4.63,-4.6204,-4.6352,-4.659,-4.6613,-4.6301,-4.6298,-4.6296,0,-4.6534,-4.6552,-4.6606,-4.6601,-4.6556,-4.6583,-4.6566,-4.6542,-4.6548,-4.6546,-4.655,-4.6554,-4.6557,-4.6562,-4.6506,-4.6447,-4.6572,-4.6479,-4.6552,-4.6554,-4.6584,-4.6583,-4.6828,-4.6587,-4.6587,-4.6586,-4.6586,0,-4.6715,-4.6771,-4.6685,-4.6718,-4.6779,-4.6706,-4.6769,-4.6743,-4.6722,-4.675,-4.667,-4.6698,-4.6621,-4.6641,-4.6598,-4.6653,-4.6655,-4.6636,-4.6624,-4.6644,-4.6647,-4.6649,-4.6638,-4.6592,-4.6591,-4.659,-4.6589,0,-4.6923,-4.6868,-4.692,-4.6873,-4.6863,-4.691,-4.687,-4.69,-4.6863,-4.6899,-4.6903,-4.6845,-4.6865,-4.6809,-4.682,-4.6791,-4.6872,-4.6842,-4.6879,-4.687,-4.6948,-4.6942,-4.7204,-4.7236,-4.6974,-4.6976,-4.6978,0,-4.7043,-4.7084,-4.7042,-4.7054,-4.7041,-4.7062,-4.7067,-4.6998,-4.7007,-4.6989,-4.7022,-4.7035,-4.7042,-4.7079,-4.7038,-4.7047,-4.7018,-4.7109,-4.7019,-4.7038,-4.7021,-4.702,-4.7025,-4.7129,-4.7132,-4.7135,-4.7137,0,-4.7263,-4.7233,-4.7244,-4.7246,-4.7254,-4.7252,-4.7245,-4.726,-4.7186,-4.7201,-4.722,-4.7226,-4.7237,-4.7253,-4.7253,-4.7236,-4.7176,-4.7165,-4.7183,-4.7205,-4.7225,-4.7216,-4.6931,-4.716,-4.7158,-4.7156,-4.7155,-4.7154,-4.7431,-4.7464,-4.7439,-4.7454,-4.7441,-4.7437,-4.7463,-4.7428,-4.7443,-4.7446,-4.7404,-4.7433,-4.7414,-4.7407,-4.7397,-4.742,-4.7378,-4.7404,-4.741,-4.7418,-4.7432,-4.722,-4.7419,-4.7419,-4.7418,-4.7417,-4.7417,0,-4.7648,-4.7627,-4.7642,-4.7634,-4.7646,-4.7586,-4.7575,-4.759,-4.7616,-4.7602,-4.7611,-4.7634,-4.7648,-4.7609,-4.7618,-4.7644,-4.7616,-4.7649,-4.7647,-4.7645,-4.7468,-4.7452,-4.7671,-4.7671,-4.7671,-4.7671,-4.7671,-4.7671,-4.7762,-4.7814,-4.7782,-4.7829,-4.7808,-4.7834,-4.7834,-4.783,-4.7819,-4.7848,-4.7859,-4.7833,-4.781,-4.7816,-4.7828,-4.7816,-4.7824,-4.7867,-4.7846,-4.7681,-4.7657,-4.7633,-4.7618,-4.7868,-4.7869,-4.802,-4.8022,-4.8023]},{"header":{"parameterUnit":"m.s-1","parameterCategory":1,"la1":30.2991,"la2":30.254,"lo1":-89.0895,"lo2":-89.0444,"dy":0.0017,"dx":0.0017,"nx":28,"ny":28,"refTime":"2024-05-29T21:00:00:Z","depth":0,"parameterNumber":3,"parameterNumberName":"V-component_of_WINDS"},"data":[0,0,0,0,0,0,0,0,0,0,0,0,0,0,0,0,0,0,0,0,0,0,0,0,0,0,0,0,0,0,0,0,0,0,0,0,0,0,0,0,0,0,0,0,0,0,0,0,0,0,0,0,0,0,0,0,0,0,-0.9443,-0.9442,0,-0.9417,-0.9417,-0.9416,-0.9376,-0.9375,-0.9375,-0.9374,-0.9348,-0.9348,-0.9348,0,0,0,0,0,0,0,0,0,0,0,0,0,-0.9456,-0.9456,-0.9443,-0.9442,-0.9442,-0.9417,-0.9417,-0.9416,-0.9376,-0.9375,-0.9375,-0.9374,-0.9348,-0.9348,-0.9348,0,0,0,0,0,0,0,0,0,0,0,0,0,-0.9442,-0.9456,-0.9443,-0.9419,-0.9417,-0.9417,-0.9417,-0.9416,-0.9376,-0.9375,-0.9374,-0.9373,-0.9348,-0.9348,-0.9348,-0.9369,0,0,-0.9347,-0.9347,0,0,0,0,0,0,0,0,-0.9443,-0.9442,-0.9423,-0.9421,-0.9418,-0.9399,-0.9412,-0.94,-0.9377,-0.9392,-0.9374,-0.9373,-0.9365,-0.9364,-0.9361,-0.9368,-0.9367,-0.9347,-0.9347,-0.9347,-0.9347,0,0,0,0,0,0,0,-0.9444,-0.9442,-0.9433,-0.9423,-0.942,-0.9409,-0.9406,-0.9409,-0.9385,-0.939,-0.9387,-0.9385,-0.9364,-0.9362,-0.9361,-0.9366,-0.9347,-0.9347,-0.9347,-0.9347,-0.9387,-0.9388,0,0,0,0,0,0,-0.9448,-0.9444,-0.9433,-0.9432,-0.9428,-0.941,-0.9406,-0.9406,-0.9385,-0.9381,-0.9386,-0.9383,-0.9362,-0.9361,-0.9359,-0.9382,-0.9347,-0.9347,-0.9347,-0.9386,-0.9387,-0.9388,0,0,0,0,0,0,-0.9449,-0.9448,-0.9434,-0.9437,-0.9434,-0.9411,-0.9411,-0.9406,-0.9404,-0.9381,-0.9377,-0.9388,-0.9361,-0.936,-0.9367,-0.9381,-0.9347,-0.9347,-0.9385,-0.9386,-0.9388,-0.9428,0,0,0,0,0,0,-0.9449,-0.9448,-0.9457,-0.9437,-0.9434,-0.9443,-0.9412,-0.9406,-0.9404,-0.94,-0.9382,-0.9378,-0.936,-0.9367,-0.9367,-0.938,-0.9347,-0.9383,-0.9385,-0.9387,-0.9426,-0.9431,-0.9436,0,0,0,0,0,-0.945,-0.947,-0.9457,-0.9456,-0.9444,-0.9444,-0.9442,-0.9421,-0.9405,-0.9413,-0.9398,-0.9379,-0.9379,-0.9368,-0.9367,-0.9381,-0.9382,-0.9385,-0.9387,-0.9423,-0.943,-0.9436,0,0,0,0,0,0,-0.9492,-0.9467,-0.9453,-0.9467,-0.9458,-0.9437,-0.9446,-0.9429,-0.9424,-0.942,-0.9394,-0.9391,-0.9401,-0.9391,-0.9379,-0.9399,-0.9378,-0.938,-0.9405,-0.9411,-0.9416,-0.9418,-0.9347,0,0,0,0,0,-0.9502,-0.9504,-0.9482,-0.9496,-0.9492,-0.947,-0.9469,-0.9453,-0.9443,-0.9439,-0.9425,-0.9415,-0.9412,-0.9411,-0.9408,-0.9424,-0.9419,-0.9433,-0.9438,-0.9442,-0.9444,-0.945,-0.9456,-0.9396,-0.9396,-0.9396,0,0,-0.9525,-0.9511,-0.9514,-0.9504,-0.9495,-0.9497,-0.9467,-0.9471,-0.9471,-0.9439,-0.9444,-0.9434,-0.9421,-0.9432,-0.9436,-0.9425,-0.946,-0.9445,-0.9449,-0.9449,-0.9453,-0.9459,-0.9464,-0.9398,-0.9398,-0.9397,0,0,-0.9566,-0.9557,-0.9567,-0.9558,-0.9545,-0.9529,-0.9532,-0.9513,-0.9505,-0.951,-0.9485,-0.9485,-0.9482,-0.9473,-0.9469,-0.9505,-0.9486,-0.9504,-0.9531,-0.9537,-0.9542,-0.9546,-0.9558,-0.9562,-0.9507,-0.9507,-0.9507,0,-0.9596,-0.9598,-0.9574,-0.9579,-0.9575,-0.9545,-0.9554,-0.9547,-0.9533,-0.9531,-0.9518,-0.9512,-0.9502,-0.9509,-0.9518,-0.9516,-0.9517,-0.9506,-0.9543,-0.9547,-0.955,-0.9561,-0.9566,-0.9509,-0.9509,-0.9509,-0.9508,0,-0.9634,-0.9635,-0.9645,-0.9632,-0.9629,-0.9636,-0.9613,-0.9613,-0.9597,-0.9583,-0.9587,-0.9573,-0.9566,-0.9566,-0.9552,-0.9572,-0.9565,-0.9548,-0.9525,-0.9559,-0.9568,-0.9573,-0.9512,-0.9512,-0.9511,-0.951,0,0,-0.9702,-0.9675,-0.9679,-0.9671,-0.9653,-0.9654,-0.9659,-0.9651,-0.9651,-0.9642,-0.9645,-0.9642,-0.9626,-0.962,-0.9604,-0.9609,-0.9637,-0.9591,-0.9591,-0.96,-0.9657,-0.9669,-0.9675,-0.9625,-0.9625,-0.9626,-0.9658,0,-0.9739,-0.9747,-0.9725,-0.9737,-0.9738,-0.9709,-0.9713,-0.9702,-0.9688,-0.9686,-0.9671,-0.9669,-0.9648,-0.9644,-0.9649,-0.9633,-0.9648,-0.963,-0.9626,-0.9626,-0.963,-0.968,-0.9694,-0.9724,-0.9662,-0.9662,-0.9663,0,-0.9784,-0.9777,-0.9789,-0.9769,-0.9768,-0.9772,-0.9763,-0.9761,-0.9748,-0.9737,-0.973,-0.9711,-0.9713,-0.9691,-0.9694,-0.9682,-0.9679,-0.9671,-0.9671,-0.967,-0.9646,-0.9679,-0.9734,-0.9738,-0.9669,-0.9668,-0.9668,0,-0.9831,-0.9824,-0.983,-0.9825,-0.9802,-0.9806,-0.9796,-0.9781,-0.9778,-0.9769,-0.9766,-0.9758,-0.9754,-0.9747,-0.9726,-0.9712,-0.973,-0.9707,-0.9721,-0.9722,-0.9726,-0.9726,-0.978,-0.9725,-0.9725,-0.9725,-0.9725,0,-0.9875,-0.9883,-0.9851,-0.9855,-0.9863,-0.9838,-0.9846,-0.9834,-0.982,-0.982,-0.9795,-0.9796,-0.9767,-0.9764,-0.9747,-0.9751,-0.9749,-0.9741,-0.9736,-0.9743,-0.9744,-0.974,-0.9737,-0.9726,-0.9726,-0.9726,-0.9725,0,-0.9929,-0.9908,-0.9912,-0.989,-0.9884,-0.9891,-0.9871,-0.9873,-0.9857,-0.9858,-0.9856,-0.9832,-0.9827,-0.9805,-0.9795,-0.9783,-0.9792,-0.9783,-0.9797,-0.9794,-0.9809,-0.9807,-0.9862,-0.9868,-0.981,-0.981,-0.9811,0,-0.9958,-0.9964,-0.9941,-0.9939,-0.9931,-0.9929,-0.9924,-0.9899,-0.9895,-0.9879,-0.9883,-0.9876,-0.9869,-0.9862,-0.9843,-0.9835,-0.9825,-0.9845,-0.9824,-0.983,-0.9824,-0.9824,-0.9824,-0.985,-0.985,-0.9851,-0.9851,0,-1.0012,-1.0001,-0.9996,-0.9986,-0.9982,-0.9974,-0.9964,-0.9963,-0.9935,-0.9932,-0.9927,-0.9921,-0.991,-0.9903,-0.9892,-0.9881,-0.9861,-0.9858,-0.9861,-0.9867,-0.9875,-0.987,-0.9809,-0.9857,-0.9856,-0.9856,-0.9856,-0.9855,-1.0054,-1.0057,-1.0041,-1.0036,-1.0025,-1.0016,-1.0017,-1.0,-0.9995,-0.9985,-0.997,-0.9966,-0.995,-0.9932,-0.9923,-0.9919,-0.9908,-0.9912,-0.9913,-0.9914,-0.9917,-0.9876,-0.9917,-0.9917,-0.9916,-0.9916,-0.9916,0,-1.0105,-1.0093,-1.0088,-1.0075,-1.007,-1.0052,-1.004,-1.0037,-1.0034,-1.0021,-1.0014,-1.0007,-1.0,-0.9979,-0.997,-0.997,-0.9961,-0.9969,-0.9968,-0.9966,-0.9928,-0.9926,-0.9976,-0.9976,-0.9976,-0.9976,-0.9976,-0.9976,-1.0131,-1.0135,-1.0122,-1.012,-1.0107,-1.0103,-1.0098,-1.0089,-1.0078,-1.0071,-1.0065,-1.0052,-1.0035,-1.0024,-1.0016,-1.001,-1.0007,-1.0018,-1.0009,-0.9974,-0.9969,-0.9963,-0.9961,-1.0018,-1.0018,-1.0047,-1.0047,-1.0047]}]]